TimeMST,TemperatureF,Dew PointF,Humidity,Sea Level PressureIn,VisibilityMPH,Wind Direction,Wind SpeedMPH,Gust SpeedMPH,PrecipitationIn,Events,Conditions,WindDirDegrees,DateUTC
12:15 AM,40.6,23.0,49,30.01,10.0,West,8.1,-,N/A,,Clear,270,2013-02-06 07:15:00
12:35 AM,40.8,23.9,51,30.01,10.0,West,6.9,-,N/A,,Clear,270,2013-02-06 07:35:00
12:55 AM,39.7,23.9,53,30.01,10.0,West,6.9,-,N/A,,Clear,280,2013-02-06 07:55:00
1:15 AM,39.4,23.9,54,30.00,10.0,West,5.8,-,N/A,,Clear,270,2013-02-06 08:15:00
1:35 AM,39.0,24.3,55,30.00,10.0,Calm,Calm,-,N/A,,Clear,0,2013-02-06 08:35:00
1:55 AM,42.1,26.2,53,29.99,10.0,Calm,Calm,-,N/A,,Clear,0,2013-02-06 08:55:00
2:15 AM,39.0,25.2,58,29.99,10.0,Calm,Calm,-,N/A,,Clear,0,2013-02-06 09:15:00
2:35 AM,36.3,22.6,58,29.99,10.0,NNE,3.5,-,N/A,,Clear,30,2013-02-06 09:35:00
2:55 AM,37.4,23.5,57,29.99,10.0,Calm,Calm,-,N/A,,Clear,0,2013-02-06 09:55:00
3:15 AM,39.4,25.7,58,29.99,10.0,East,4.6,-,N/A,,Clear,90,2013-02-06 10:15:00
3:35 AM,41.4,26.1,55,29.98,10.0,Calm,Calm,-,N/A,,Clear,0,2013-02-06 10:35:00
3:55 AM,36.3,22.1,56,29.98,10.0,Calm,Calm,-,N/A,,Clear,0,2013-02-06 10:55:00
4:15 AM,34.2,22.1,61,29.97,10.0,Calm,Calm,-,N/A,,Clear,0,2013-02-06 11:15:00
4:35 AM,36.3,24.1,61,29.98,10.0,West,3.5,-,N/A,,Clear,280,2013-02-06 11:35:00
4:55 AM,33.4,22.3,64,29.97,10.0,WNW,3.5,-,N/A,,Clear,300,2013-02-06 11:55:00
5:15 AM,35.2,24.3,64,29.97,10.0,West,8.1,-,N/A,,Clear,280,2013-02-06 12:15:00
5:35 AM,36.0,25.3,65,29.98,10.0,WNW,5.8,-,N/A,,Clear,290,2013-02-06 12:35:00
6:15 AM,35.2,25.7,68,29.97,10.0,WNW,4.6,-,N/A,,Clear,300,2013-02-06 13:15:00
6:35 AM,32.9,24.4,71,29.99,10.0,West,6.9,-,N/A,,Clear,280,2013-02-06 13:35:00
6:55 AM,32.9,24.3,71,29.99,10.0,North,3.5,-,N/A,,Clear,10,2013-02-06 13:55:00
7:15 AM,36.5,26.8,68,29.99,10.0,Calm,Calm,-,N/A,,Clear,0,2013-02-06 14:15:00
7:35 AM,37.6,26.2,64,30.00,10.0,WNW,3.5,-,N/A,,Clear,290,2013-02-06 14:35:00
7:55 AM,42.6,28.0,56,30.00,10.0,Calm,Calm,-,N/A,,Clear,0,2013-02-06 14:55:00
8:15 AM,45.7,29.1,52,30.01,10.0,West,4.6,-,N/A,,Clear,270,2013-02-06 15:15:00
8:35 AM,49.1,29.8,47,30.02,10.0,SSW,4.6,-,N/A,,Clear,210,2013-02-06 15:35:00
8:55 AM,51.1,29.8,44,30.02,10.0,WSW,3.5,-,N/A,,Clear,250,2013-02-06 15:55:00
9:15 AM,53.6,29.7,40,30.02,10.0,West,5.8,-,N/A,,Clear,270,2013-02-06 16:15:00
9:35 AM,55.4,29.3,37,30.03,10.0,WSW,5.8,-,N/A,,Clear,250,2013-02-06 16:35:00
9:55 AM,56.8,29.3,35,30.03,10.0,West,8.1,-,N/A,,Clear,260,2013-02-06 16:55:00
10:15 AM,57.9,29.5,34,30.03,10.0,WSW,8.1,-,N/A,,Clear,240,2013-02-06 17:15:00
10:35 AM,58.8,29.3,33,30.03,10.0,WSW,9.2,-,N/A,,Clear,240,2013-02-06 17:35:00
10:55 AM,58.1,29.3,33,30.03,10.0,WSW,9.2,-,N/A,,Clear,250,2013-02-06 17:55:00
11:15 AM,60.1,29.8,32,30.02,10.0,WSW,10.4,-,N/A,,Clear,250,2013-02-06 18:15:00
11:35 AM,61.0,29.7,31,30.01,10.0,WSW,13.8,18.4,N/A,,Clear,240,2013-02-06 18:35:00
11:55 AM,61.3,29.1,30,30.00,10.0,West,10.4,18.4,N/A,,Clear,260,2013-02-06 18:55:00
12:15 PM,62.6,28.2,27,29.99,10.0,WSW,15.0,24.2,N/A,,Clear,250,2013-02-06 19:15:00
12:35 PM,62.1,28.4,28,29.97,10.0,WSW,12.7,20.7,N/A,,Clear,240,2013-02-06 19:35:00
12:55 PM,63.0,26.2,25,29.96,10.0,WSW,15.0,20.7,N/A,,Clear,250,2013-02-06 19:55:00
1:15 PM,62.6,27.5,26,29.95,10.0,WSW,12.7,21.9,N/A,,Clear,240,2013-02-06 20:15:00
1:35 PM,62.6,26.4,25,29.95,10.0,WSW,11.5,20.7,N/A,,Clear,250,2013-02-06 20:35:00
1:55 PM,62.6,27.7,27,29.94,10.0,West,8.1,16.1,N/A,,Clear,260,2013-02-06 20:55:00
2:15 PM,63.3,28.4,27,29.93,10.0,WSW,10.4,16.1,N/A,,Clear,250,2013-02-06 21:15:00
2:35 PM,64.2,28.2,26,29.93,10.0,SW,10.4,18.4,N/A,,Clear,230,2013-02-06 21:35:00
2:55 PM,65.7,28.6,25,29.92,10.0,WSW,12.7,19.6,N/A,,Clear,240,2013-02-06 21:55:00
3:15 PM,65.5,27.9,24,29.92,10.0,West,15.0,20.7,N/A,,Clear,260,2013-02-06 22:15:00
3:35 PM,65.5,27.1,24,29.92,10.0,West,19.6,24.2,N/A,,Clear,260,2013-02-06 22:35:00
3:55 PM,64.6,27.0,24,29.92,10.0,West,17.3,23.0,N/A,,Clear,260,2013-02-06 22:55:00
4:15 PM,62.1,28.2,28,29.92,10.0,West,16.1,21.9,N/A,,Clear,260,2013-02-06 23:15:00
4:35 PM,61.7,29.3,29,29.92,10.0,West,15.0,20.7,N/A,,Clear,270,2013-02-06 23:35:00
4:55 PM,62.8,29.3,28,29.93,10.0,West,18.4,27.6,N/A,,Clear,260,2013-02-06 23:55:00
5:15 PM,60.6,28.4,29,29.94,10.0,West,13.8,-,N/A,,Clear,260,2013-02-07 00:15:00
5:35 PM,59.2,28.9,32,29.94,10.0,West,13.8,21.9,N/A,,Clear,260,2013-02-07 00:35:00
5:55 PM,58.5,28.4,32,29.95,10.0,West,13.8,19.6,N/A,,Clear,270,2013-02-07 00:55:00
6:15 PM,57.6,27.5,32,29.95,10.0,West,12.7,-,N/A,,Clear,280,2013-02-07 01:15:00
6:35 PM,57.2,27.5,32,29.96,10.0,West,13.8,-,N/A,,Clear,280,2013-02-07 01:35:00
6:55 PM,56.5,27.5,33,29.96,10.0,West,12.7,-,N/A,,Clear,270,2013-02-07 01:55:00
7:15 PM,54.9,27.5,35,29.97,10.0,West,10.4,-,N/A,,Clear,270,2013-02-07 02:15:00
7:35 PM,54.3,27.9,36,29.98,10.0,West,10.4,-,N/A,,Clear,260,2013-02-07 02:35:00
7:55 PM,52.9,27.5,38,29.99,10.0,West,6.9,-,N/A,,Clear,270,2013-02-07 02:55:00
8:15 PM,51.1,27.7,40,29.99,10.0,WNW,6.9,-,N/A,,Clear,300,2013-02-07 03:15:00
8:35 PM,50.2,27.9,42,29.99,10.0,West,10.4,-,N/A,,Clear,280,2013-02-07 03:35:00
8:55 PM,49.1,27.9,44,29.99,10.0,West,10.4,-,N/A,,Clear,280,2013-02-07 03:55:00
9:15 PM,46.8,27.3,47,30.00,10.0,West,11.5,-,N/A,,Clear,270,2013-02-07 04:15:00
9:35 PM,47.3,27.5,46,30.00,10.0,West,10.4,-,N/A,,Clear,270,2013-02-07 04:35:00
9:55 PM,48.2,28.0,46,30.01,10.0,West,10.4,-,N/A,,Clear,260,2013-02-07 04:55:00
10:15 PM,46.0,27.7,49,30.01,10.0,WSW,8.1,-,N/A,,Clear,240,2013-02-07 05:15:00
10:35 PM,46.4,27.9,48,30.02,10.0,WSW,9.2,-,N/A,,Clear,240,2013-02-07 05:35:00
10:55 PM,45.7,27.9,50,30.03,10.0,WSW,6.9,-,N/A,,Clear,250,2013-02-07 05:55:00
11:15 PM,43.5,27.3,53,30.03,10.0,West,8.1,-,N/A,,Clear,270,2013-02-07 06:15:00
11:35 PM,41.9,26.6,55,30.03,10.0,West,6.9,-,N/A,,Clear,260,2013-02-07 06:35:00
11:55 PM,41.4,27.3,57,30.03,10.0,WSW,10.4,-,N/A,,Clear,250,2013-02-07 06:55:00